contact:dominique.lefevre@mio.osupytheas.fr, maurice.libes@osupytheas.fr, didier.mallarino@osupytheas.fr
Project:EMSO http://www.emso-fr.org/EMSO-France
Depth: 2436.0 m
Title:EMSO Ligure Ouest : Data MII capteur MICROCAT
DateTime_Computer,Latitude,Longitude,Temperature,Conductivity,Pressure,DateTime_Instrument
DateTime_Computer,Latitude,Longitude,degC,S m-1,dbar,DateTime_Instrument
2020-10-31T00:01:26Z,42.805,6.029,13.2987,4.60003,2470.11,2020-10-31T02:02:21Z
2020-10-31T00:04:29Z,42.805,6.029,13.2988,4.59995,2470.124,2020-10-31T02:05:24Z
2020-10-31T00:07:32Z,42.805,6.029,13.2988,4.59998,2470.124,2020-10-31T02:08:28Z
2020-10-31T00:10:35Z,42.805,6.029,13.2981,4.59993,2470.11,2020-10-31T02:11:31Z
2020-10-31T00:13:39Z,42.805,6.029,13.2988,4.59999,2470.1,2020-10-31T02:14:34Z
2020-10-31T00:16:42Z,42.805,6.029,13.2989,4.60010,2470.087,2020-10-31T02:17:37Z
2020-10-31T00:19:45Z,42.805,6.029,13.2986,4.59996,2470.087,2020-10-31T02:20:40Z
2020-10-31T00:22:48Z,42.805,6.029,13.2980,4.60014,2470.04,2020-10-31T02:23:43Z
2020-10-31T00:25:51Z,42.805,6.029,13.2988,4.60006,2470.087,2020-10-31T02:26:46Z
2020-10-31T00:28:54Z,42.805,6.029,13.2977,4.59999,2470.063,2020-10-31T02:29:49Z
2020-10-31T00:31:57Z,42.805,6.029,13.2995,4.60008,2470.1,2020-10-31T02:32:53Z
2020-10-31T00:35:00Z,42.805,6.029,13.2991,4.60014,2470.1,2020-10-31T02:35:56Z
2020-10-31T00:38:04Z,42.805,6.029,13.2991,4.60010,2470.133,2020-10-31T02:38:59Z
2020-10-31T00:41:07Z,42.805,6.029,13.2985,4.59991,2470.077,2020-10-31T02:42:02Z
2020-10-31T00:44:10Z,42.805,6.029,13.2985,4.59992,2470.063,2020-10-31T02:45:05Z
2020-10-31T00:47:13Z,42.805,6.029,13.2980,4.59996,2470.11,2020-10-31T02:48:08Z
2020-10-31T00:50:16Z,42.805,6.029,13.2982,4.59995,2470.087,2020-10-31T02:51:11Z
2020-10-31T00:53:19Z,42.805,6.029,13.2993,4.60014,2470.063,2020-10-31T02:54:14Z
2020-10-31T00:56:22Z,42.805,6.029,13.2987,4.60014,2470.063,2020-10-31T02:57:18Z
2020-10-31T00:59:25Z,42.805,6.029,13.2994,4.60017,2470.063,2020-10-31T03:00:21Z
2020-10-31T01:02:28Z,42.805,6.029,13.2982,4.60009,2470.063,2020-10-31T03:03:24Z
2020-10-31T01:05:32Z,42.805,6.029,13.2984,4.59995,2470.04,2020-10-31T03:06:27Z
2020-10-31T01:08:35Z,42.805,6.029,13.2986,4.60011,2470.063,2020-10-31T03:09:30Z
2020-10-31T01:11:38Z,42.805,6.029,13.2984,4.59998,2470.04,2020-10-31T03:12:33Z
2020-10-31T01:14:41Z,42.805,6.029,13.2977,4.59994,2470.017,2020-10-31T03:15:36Z
2020-10-31T01:17:44Z,42.805,6.029,13.2979,4.59989,2470.1,2020-10-31T03:18:39Z
2020-10-31T01:20:47Z,42.805,6.029,13.2991,4.60008,2470.063,2020-10-31T03:21:43Z
2020-10-31T01:23:50Z,42.805,6.029,13.2996,4.60020,2470.063,2020-10-31T03:24:46Z
2020-10-31T01:26:53Z,42.805,6.029,13.2996,4.60013,2470.063,2020-10-31T03:27:49Z
2020-10-31T01:29:57Z,42.805,6.029,13.2993,4.60013,2470.11,2020-10-31T03:30:52Z
2020-10-31T01:33:00Z,42.805,6.029,13.2982,4.59993,2470.063,2020-10-31T03:33:55Z
2020-10-31T01:36:03Z,42.805,6.029,13.2993,4.59999,2470.077,2020-10-31T03:36:58Z
2020-10-31T01:39:06Z,42.805,6.029,13.2981,4.60002,2470.1,2020-10-31T03:40:01Z
2020-10-31T01:42:09Z,42.805,6.029,13.2988,4.60016,2470.1,2020-10-31T03:43:04Z
2020-10-31T01:45:12Z,42.805,6.029,13.2982,4.60002,2470.087,2020-10-31T03:46:07Z
2020-10-31T01:48:15Z,42.805,6.029,13.2984,4.59991,2470.04,2020-10-31T03:49:11Z
2020-10-31T01:51:18Z,42.805,6.029,13.2982,4.59993,2470.063,2020-10-31T03:52:14Z
2020-10-31T01:54:22Z,42.805,6.029,13.2991,4.60010,2470.063,2020-10-31T03:55:17Z
2020-10-31T01:57:25Z,42.805,6.029,13.2991,4.60007,2470.077,2020-10-31T03:58:20Z
2020-10-31T02:00:28Z,42.805,6.029,13.2979,4.60000,2470.077,2020-10-31T04:01:23Z
2020-10-31T02:03:31Z,42.805,6.029,13.2985,4.60000,2470.077,2020-10-31T04:04:26Z
2020-10-31T02:06:34Z,42.805,6.029,13.2993,4.60014,2470.1,2020-10-31T04:07:29Z
2020-10-31T02:09:37Z,42.805,6.029,13.2992,4.60016,2470.11,2020-10-31T04:10:32Z
2020-10-31T02:12:40Z,42.805,6.029,13.2985,4.60014,2470.053,2020-10-31T04:13:36Z
2020-10-31T02:15:43Z,42.805,6.029,13.2982,4.60001,2470.077,2020-10-31T04:16:39Z
2020-10-31T02:18:46Z,42.805,6.029,13.2996,4.60017,2470.077,2020-10-31T04:19:42Z
2020-10-31T02:21:50Z,42.805,6.029,13.2993,4.60024,2470.087,2020-10-31T04:22:45Z
2020-10-31T02:24:53Z,42.805,6.029,13.2996,4.60017,2470.063,2020-10-31T04:25:48Z
2020-10-31T02:27:56Z,42.805,6.029,13.2977,4.60004,2470.077,2020-10-31T04:28:51Z
2020-10-31T02:30:59Z,42.805,6.029,13.2991,4.60021,2470.087,2020-10-31T04:31:54Z
2020-10-31T02:34:02Z,42.805,6.029,13.2986,4.60020,2470.124,2020-10-31T04:34:57Z
2020-10-31T02:37:05Z,42.805,6.029,13.2992,4.60031,2470.087,2020-10-31T04:38:01Z
2020-10-31T02:40:08Z,42.805,6.029,13.2995,4.60019,2470.063,2020-10-31T04:41:04Z
2020-10-31T02:43:11Z,42.805,6.029,13.2999,4.60018,2470.087,2020-10-31T04:44:07Z
2020-10-31T02:46:15Z,42.805,6.029,13.3004,4.60034,2470.087,2020-10-31T04:47:10Z
2020-10-31T02:49:18Z,42.805,6.029,13.2984,4.60000,2470.124,2020-10-31T04:50:13Z
2020-10-31T02:52:21Z,42.805,6.029,13.2990,4.59999,2470.087,2020-10-31T04:53:16Z
2020-10-31T02:55:24Z,42.805,6.029,13.2995,4.60014,2470.1,2020-10-31T04:56:19Z
2020-10-31T02:58:27Z,42.805,6.029,13.3000,4.60018,2470.11,2020-10-31T04:59:22Z
2020-10-31T03:01:30Z,42.805,6.029,13.2995,4.60020,2470.1,2020-10-31T05:02:26Z
2020-10-31T03:04:33Z,42.805,6.029,13.3002,4.60024,2470.096,2020-10-31T05:05:29Z
2020-10-31T03:07:36Z,42.805,6.029,13.2995,4.60019,2470.11,2020-10-31T05:08:32Z
2020-10-31T03:10:40Z,42.805,6.029,13.2989,4.60012,2470.1,2020-10-31T05:11:35Z
2020-10-31T03:13:43Z,42.805,6.029,13.2998,4.60019,2470.124,2020-10-31T05:14:38Z
2020-10-31T03:16:46Z,42.805,6.029,13.2981,4.60004,2470.133,2020-10-31T05:17:41Z
2020-10-31T03:19:49Z,42.805,6.029,13.2991,4.60005,2470.133,2020-10-31T05:20:44Z
2020-10-31T03:22:52Z,42.805,6.029,13.2978,4.59994,2470.124,2020-10-31T05:23:47Z
2020-10-31T03:25:55Z,42.805,6.029,13.2984,4.59995,2470.147,2020-10-31T05:26:50Z
2020-10-31T03:28:58Z,42.805,6.029,13.2979,4.59996,2470.11,2020-10-31T05:29:54Z
2020-10-31T03:32:01Z,42.805,6.029,13.2986,4.59999,2470.087,2020-10-31T05:32:57Z
2020-10-31T03:35:05Z,42.805,6.029,13.2989,4.60021,2470.124,2020-10-31T05:36:00Z
2020-10-31T03:38:08Z,42.805,6.029,13.2987,4.60016,2470.11,2020-10-31T05:39:03Z
2020-10-31T03:41:11Z,42.805,6.029,13.3010,4.60032,2470.147,2020-10-31T05:42:06Z
2020-10-31T03:44:14Z,42.805,6.029,13.3007,4.60027,2470.133,2020-10-31T05:45:09Z
2020-10-31T03:47:17Z,42.805,6.029,13.2996,4.60021,2470.194,2020-10-31T05:48:12Z
2020-10-31T03:50:20Z,42.805,6.029,13.2998,4.60021,2470.133,2020-10-31T05:51:15Z
2020-10-31T03:53:23Z,42.805,6.029,13.3006,4.60021,2470.133,2020-10-31T05:54:19Z
2020-10-31T03:56:26Z,42.805,6.029,13.2998,4.60026,2470.171,2020-10-31T05:57:22Z
2020-10-31T03:59:30Z,42.805,6.029,13.2998,4.60026,2470.156,2020-10-31T06:00:25Z
2020-10-31T04:02:33Z,42.805,6.029,13.3016,4.60006,2470.133,2020-10-31T06:03:28Z
2020-10-31T04:05:36Z,42.805,6.029,13.2995,4.60021,2470.171,2020-10-31T06:06:31Z
2020-10-31T04:08:39Z,42.805,6.029,13.2982,4.60014,2470.18,2020-10-31T06:09:34Z
2020-10-31T04:11:42Z,42.805,6.029,13.2998,4.60029,2470.143,2020-10-31T06:12:37Z
2020-10-31T04:14:45Z,42.805,6.029,13.2998,4.60016,2470.18,2020-10-31T06:15:40Z
2020-10-31T04:17:48Z,42.805,6.029,13.3005,4.60023,2470.18,2020-10-31T06:18:44Z
2020-10-31T04:20:51Z,42.805,6.029,13.2983,4.60009,2470.194,2020-10-31T06:21:47Z
2020-10-31T04:23:54Z,42.805,6.029,13.2982,4.60000,2470.203,2020-10-31T06:24:50Z
2020-10-31T04:26:58Z,42.805,6.029,13.2979,4.59994,2470.194,2020-10-31T06:27:53Z
2020-10-31T04:30:01Z,42.805,6.029,13.2979,4.59996,2470.156,2020-10-31T06:30:56Z
2020-10-31T04:33:04Z,42.805,6.029,13.2991,4.60024,2470.166,2020-10-31T06:33:59Z
2020-10-31T04:36:07Z,42.805,6.029,13.2990,4.60010,2470.18,2020-10-31T06:37:02Z
2020-10-31T04:39:10Z,42.805,6.029,13.3004,4.60026,2470.203,2020-10-31T06:40:05Z
2020-10-31T04:42:13Z,42.805,6.029,13.2997,4.60015,2470.194,2020-10-31T06:43:09Z
2020-10-31T04:45:16Z,42.805,6.029,13.3000,4.60027,2470.227,2020-10-31T06:46:12Z
2020-10-31T04:48:19Z,42.805,6.029,13.2982,4.60011,2470.24,2020-10-31T06:49:15Z
2020-10-31T04:51:23Z,42.805,6.029,13.2979,4.60011,2470.203,2020-10-31T06:52:18Z
2020-10-31T04:54:26Z,42.805,6.029,13.2998,4.60016,2470.217,2020-10-31T06:55:21Z
2020-10-31T04:57:29Z,42.805,6.029,13.2980,4.60001,2470.227,2020-10-31T06:58:24Z
2020-10-31T05:00:32Z,42.805,6.029,13.2982,4.59995,2470.203,2020-10-31T07:01:27Z
2020-10-31T05:03:35Z,42.805,6.029,13.3002,4.60022,2470.156,2020-10-31T07:04:30Z
2020-10-31T05:06:38Z,42.805,6.029,13.2989,4.60019,2470.25,2020-10-31T07:07:34Z
2020-10-31T05:09:41Z,42.805,6.029,13.2986,4.60021,2470.264,2020-10-31T07:10:37Z
2020-10-31T05:12:44Z,42.805,6.029,13.2987,4.60007,2470.203,2020-10-31T07:13:40Z
2020-10-31T05:15:48Z,42.805,6.029,13.2983,4.60008,2470.217,2020-10-31T07:16:43Z
2020-10-31T05:18:51Z,42.805,6.029,13.2984,4.59990,2470.273,2020-10-31T07:19:46Z
2020-10-31T05:21:54Z,42.805,6.029,13.2992,4.60007,2470.264,2020-10-31T07:22:49Z
2020-10-31T05:24:57Z,42.805,6.029,13.2999,4.60029,2470.227,2020-10-31T07:25:52Z
2020-10-31T05:28:00Z,42.805,6.029,13.3001,4.60016,2470.217,2020-10-31T07:28:55Z
2020-10-31T05:31:03Z,42.805,6.029,13.2982,4.60016,2470.25,2020-10-31T07:31:58Z
2020-10-31T05:34:06Z,42.805,6.029,13.2982,4.60009,2470.227,2020-10-31T07:35:02Z
2020-10-31T05:37:09Z,42.805,6.029,13.2985,4.60000,2470.25,2020-10-31T07:38:05Z
2020-10-31T05:40:13Z,42.805,6.029,13.2982,4.59999,2470.264,2020-10-31T07:41:08Z
2020-10-31T05:43:16Z,42.805,6.029,13.2983,4.60014,2470.25,2020-10-31T07:44:11Z
2020-10-31T05:46:19Z,42.805,6.029,13.3004,4.60019,2470.227,2020-10-31T07:47:14Z
2020-10-31T05:49:22Z,42.805,6.029,13.2985,4.60026,2470.227,2020-10-31T07:50:17Z
2020-10-31T05:52:25Z,42.805,6.029,13.2985,4.60012,2470.273,2020-10-31T07:53:20Z
2020-10-31T05:55:28Z,42.805,6.029,13.2993,4.60016,2470.273,2020-10-31T07:56:23Z
2020-10-31T05:58:31Z,42.805,6.029,13.2992,4.60024,2470.273,2020-10-31T07:59:27Z
2020-10-31T06:01:34Z,42.805,6.029,13.2991,4.60024,2470.273,2020-10-31T08:02:30Z
2020-10-31T06:04:38Z,42.805,6.029,13.2995,4.60034,2470.287,2020-10-31T08:05:33Z
2020-10-31T06:07:41Z,42.805,6.029,13.2992,4.60029,2470.227,2020-10-31T08:08:36Z
2020-10-31T06:10:44Z,42.805,6.029,13.2997,4.60019,2470.25,2020-10-31T08:11:39Z
2020-10-31T06:13:47Z,42.805,6.029,13.2985,4.59998,2470.25,2020-10-31T08:14:42Z
2020-10-31T06:16:50Z,42.805,6.029,13.2989,4.60000,2470.25,2020-10-31T08:17:45Z
2020-10-31T06:19:53Z,42.805,6.029,13.2988,4.60034,2470.273,2020-10-31T08:20:48Z
2020-10-31T06:22:56Z,42.805,6.029,13.3007,4.60014,2470.25,2020-10-31T08:23:52Z
2020-10-31T06:25:59Z,42.805,6.029,13.2988,4.60019,2470.297,2020-10-31T08:26:55Z
2020-10-31T06:29:03Z,42.805,6.029,13.2992,4.60009,2470.273,2020-10-31T08:29:58Z
2020-10-31T06:32:06Z,42.805,6.029,13.2991,4.60015,2470.264,2020-10-31T08:33:01Z
2020-10-31T06:35:09Z,42.805,6.029,13.2991,4.60016,2470.31,2020-10-31T08:36:04Z
2020-10-31T06:38:12Z,42.805,6.029,13.2986,4.60016,2470.273,2020-10-31T08:39:07Z
2020-10-31T06:41:15Z,42.805,6.029,13.2989,4.60010,2470.273,2020-10-31T08:42:10Z
2020-10-31T06:44:18Z,42.805,6.029,13.2993,4.60002,2470.287,2020-10-31T08:45:13Z
2020-10-31T06:47:21Z,42.805,6.029,13.2998,4.60023,2470.287,2020-10-31T08:48:17Z
2020-10-31T06:50:24Z,42.805,6.029,13.2982,4.60011,2470.283,2020-10-31T08:51:20Z
2020-10-31T06:53:27Z,42.805,6.029,13.2996,4.60019,2470.273,2020-10-31T08:54:23Z
2020-10-31T06:56:31Z,42.805,6.029,13.2986,4.59999,2470.287,2020-10-31T08:57:26Z
2020-10-31T06:59:34Z,42.805,6.029,13.2986,4.60015,2470.31,2020-10-31T09:00:29Z
2020-10-31T07:02:37Z,42.805,6.029,13.2993,4.60025,2470.273,2020-10-31T09:03:32Z
2020-10-31T07:05:40Z,42.805,6.029,13.2984,4.59996,2470.297,2020-10-31T09:06:35Z
2020-10-31T07:08:43Z,42.805,6.029,13.2984,4.60001,2470.25,2020-10-31T09:09:38Z
2020-10-31T07:11:46Z,42.805,6.029,13.2987,4.60006,2470.264,2020-10-31T09:12:42Z
2020-10-31T07:14:49Z,42.805,6.029,13.2994,4.60014,2470.25,2020-10-31T09:15:45Z
2020-10-31T07:17:52Z,42.805,6.029,13.2989,4.60008,2470.273,2020-10-31T09:18:48Z
2020-10-31T07:20:56Z,42.805,6.029,13.2981,4.60011,2470.273,2020-10-31T09:21:51Z
2020-10-31T07:23:59Z,42.805,6.029,13.2993,4.60009,2470.273,2020-10-31T09:24:54Z
2020-10-31T07:27:02Z,42.805,6.029,13.2985,4.60022,2470.24,2020-10-31T09:27:57Z
2020-10-31T07:30:05Z,42.805,6.029,13.3003,4.60010,2470.273,2020-10-31T09:31:00Z
2020-10-31T07:33:08Z,42.805,6.029,13.2995,4.60017,2470.25,2020-10-31T09:34:03Z
2020-10-31T07:36:11Z,42.805,6.029,13.2983,4.59997,2470.273,2020-10-31T09:37:06Z
2020-10-31T07:39:14Z,42.805,6.029,13.2995,4.60014,2470.287,2020-10-31T09:40:10Z
2020-10-31T07:42:17Z,42.805,6.029,13.2986,4.60005,2470.297,2020-10-31T09:43:13Z
2020-10-31T07:45:21Z,42.805,6.029,13.2991,4.60015,2470.287,2020-10-31T09:46:16Z
2020-10-31T07:48:24Z,42.805,6.029,13.2983,4.60002,2470.287,2020-10-31T09:49:19Z
2020-10-31T07:51:27Z,42.805,6.029,13.2985,4.60016,2470.25,2020-10-31T09:52:22Z
2020-10-31T07:54:30Z,42.805,6.029,13.2982,4.60011,2470.287,2020-10-31T09:55:25Z
2020-10-31T07:57:33Z,42.805,6.029,13.2982,4.60008,2470.273,2020-10-31T09:58:28Z
2020-10-31T08:00:36Z,42.805,6.029,13.2979,4.60004,2470.25,2020-10-31T10:01:31Z
2020-10-31T08:03:39Z,42.805,6.029,13.2982,4.60009,2470.264,2020-10-31T10:04:35Z
2020-10-31T08:06:42Z,42.805,6.029,13.2982,4.59999,2470.273,2020-10-31T10:07:38Z
2020-10-31T08:09:46Z,42.805,6.029,13.3001,4.60016,2470.25,2020-10-31T10:10:41Z
2020-10-31T08:12:49Z,42.805,6.029,13.2996,4.60017,2470.273,2020-10-31T10:13:44Z
2020-10-31T08:15:52Z,42.805,6.029,13.2986,4.60007,2470.273,2020-10-31T10:16:47Z
2020-10-31T08:18:55Z,42.805,6.029,13.2982,4.59996,2470.25,2020-10-31T10:19:50Z
2020-10-31T08:21:58Z,42.805,6.029,13.2985,4.59993,2470.24,2020-10-31T10:22:53Z
2020-10-31T08:25:01Z,42.805,6.029,13.2984,4.60019,2470.25,2020-10-31T10:25:56Z
2020-10-31T08:28:04Z,42.805,6.029,13.2979,4.60001,2470.25,2020-10-31T10:29:00Z
2020-10-31T08:31:07Z,42.805,6.029,13.2984,4.59996,2470.25,2020-10-31T10:32:03Z
2020-10-31T08:34:11Z,42.805,6.029,13.2991,4.59999,2470.25,2020-10-31T10:35:06Z
2020-10-31T08:37:14Z,42.805,6.029,13.2989,4.60014,2470.273,2020-10-31T10:38:09Z
2020-10-31T08:40:17Z,42.805,6.029,13.2986,4.60020,2470.273,2020-10-31T10:41:12Z
2020-10-31T08:43:20Z,42.805,6.029,13.3006,4.60011,2470.24,2020-10-31T10:44:15Z
2020-10-31T08:46:23Z,42.805,6.029,13.3000,4.60004,2470.25,2020-10-31T10:47:18Z
2020-10-31T08:49:26Z,42.805,6.029,13.2991,4.60007,2470.273,2020-10-31T10:50:21Z
2020-10-31T08:52:29Z,42.805,6.029,13.2977,4.59989,2470.287,2020-10-31T10:53:25Z
2020-10-31T08:55:32Z,42.805,6.029,13.2985,4.59996,2470.227,2020-10-31T10:56:28Z
2020-10-31T08:58:36Z,42.805,6.029,13.2980,4.60000,2470.25,2020-10-31T10:59:31Z
2020-10-31T09:01:39Z,42.805,6.029,13.2979,4.59991,2470.25,2020-10-31T11:02:34Z
2020-10-31T09:04:42Z,42.805,6.029,13.2983,4.59996,2470.25,2020-10-31T11:05:37Z
2020-10-31T09:07:45Z,42.805,6.029,13.2989,4.60021,2470.227,2020-10-31T11:08:40Z
2020-10-31T09:10:48Z,42.805,6.029,13.3000,4.60003,2470.227,2020-10-31T11:11:43Z
2020-10-31T09:13:51Z,42.805,6.029,13.2983,4.60030,2470.227,2020-10-31T11:14:47Z
2020-10-31T09:16:54Z,42.805,6.029,13.2984,4.60016,2470.264,2020-10-31T11:17:50Z
2020-10-31T09:19:57Z,42.805,6.029,13.2986,4.60003,2470.227,2020-10-31T11:20:53Z
2020-10-31T09:23:01Z,42.805,6.029,13.2986,4.59998,2470.264,2020-10-31T11:23:56Z
2020-10-31T09:26:04Z,42.805,6.029,13.2984,4.60011,2470.24,2020-10-31T11:26:59Z
2020-10-31T09:29:07Z,42.805,6.029,13.2990,4.60026,2470.227,2020-10-31T11:30:02Z
2020-10-31T09:32:10Z,42.805,6.029,13.2979,4.59999,2470.194,2020-10-31T11:33:05Z
2020-10-31T09:35:13Z,42.805,6.029,13.2986,4.60001,2470.264,2020-10-31T11:36:08Z
2020-10-31T09:38:16Z,42.805,6.029,13.2991,4.60022,2470.194,2020-10-31T11:39:12Z
2020-10-31T09:41:19Z,42.805,6.029,13.2990,4.60005,2470.213,2020-10-31T11:42:15Z
2020-10-31T09:44:22Z,42.805,6.029,13.2987,4.59998,2470.217,2020-10-31T11:45:18Z
2020-10-31T09:47:26Z,42.805,6.029,13.2982,4.59999,2470.18,2020-10-31T11:48:21Z
2020-10-31T09:50:29Z,42.805,6.029,13.2987,4.59999,2470.227,2020-10-31T11:51:24Z
2020-10-31T09:53:32Z,42.805,6.029,13.2983,4.60014,2470.24,2020-10-31T11:54:27Z
2020-10-31T09:56:35Z,42.805,6.029,13.2986,4.60007,2470.203,2020-10-31T11:57:30Z
2020-10-31T09:59:38Z,42.805,6.029,13.2976,4.59993,2470.227,2020-10-31T12:00:33Z
2020-10-31T10:02:41Z,42.805,6.029,13.2984,4.60000,2470.203,2020-10-31T12:03:37Z
2020-10-31T10:05:44Z,42.805,6.029,13.2988,4.60015,2470.227,2020-10-31T12:06:40Z
2020-10-31T10:08:47Z,42.805,6.029,13.2998,4.60020,2470.18,2020-10-31T12:09:43Z
2020-10-31T10:11:51Z,42.805,6.029,13.2999,4.60010,2470.227,2020-10-31T12:12:46Z
2020-10-31T10:14:54Z,42.805,6.029,13.2986,4.60001,2470.217,2020-10-31T12:15:49Z
2020-10-31T10:17:57Z,42.805,6.029,13.2995,4.60019,2470.156,2020-10-31T12:18:52Z
2020-10-31T10:21:00Z,42.805,6.029,13.2979,4.60009,2470.217,2020-10-31T12:21:55Z
2020-10-31T10:24:03Z,42.805,6.029,13.2981,4.60004,2470.203,2020-10-31T12:24:58Z
2020-10-31T10:27:06Z,42.805,6.029,13.2984,4.60014,2470.227,2020-10-31T12:28:02Z
2020-10-31T10:30:09Z,42.805,6.029,13.2999,4.60024,2470.18,2020-10-31T12:31:05Z
2020-10-31T10:33:12Z,42.805,6.029,13.2993,4.60003,2470.217,2020-10-31T12:34:08Z
2020-10-31T10:36:16Z,42.805,6.029,13.2987,4.60020,2470.203,2020-10-31T12:37:11Z
2020-10-31T10:39:19Z,42.805,6.029,13.2988,4.60014,2470.156,2020-10-31T12:40:14Z
2020-10-31T10:42:22Z,42.805,6.029,13.2990,4.60005,2470.203,2020-10-31T12:43:17Z
2020-10-31T10:45:25Z,42.805,6.029,13.2979,4.59999,2470.194,2020-10-31T12:46:20Z
2020-10-31T10:48:28Z,42.805,6.029,13.2991,4.60014,2470.194,2020-10-31T12:49:23Z
2020-10-31T10:51:31Z,42.805,6.029,13.3006,4.60016,2470.217,2020-10-31T12:52:27Z
2020-10-31T10:54:34Z,42.805,6.029,13.2983,4.59995,2470.156,2020-10-31T12:55:30Z
2020-10-31T10:57:37Z,42.805,6.029,13.2976,4.59993,2470.171,2020-10-31T12:58:33Z
2020-10-31T11:00:41Z,42.805,6.029,13.2986,4.60019,2470.18,2020-10-31T13:01:36Z
2020-10-31T11:03:44Z,42.805,6.029,13.2984,4.60022,2470.18,2020-10-31T13:04:39Z
2020-10-31T11:06:47Z,42.805,6.029,13.2982,4.60006,2470.194,2020-10-31T13:07:42Z
2020-10-31T11:09:50Z,42.805,6.029,13.2981,4.60001,2470.171,2020-10-31T13:10:45Z
2020-10-31T11:12:53Z,42.805,6.029,13.2998,4.60005,2470.156,2020-10-31T13:13:48Z
2020-10-31T11:15:56Z,42.805,6.029,13.2984,4.60026,2470.194,2020-10-31T13:16:52Z
2020-10-31T11:18:59Z,42.805,6.029,13.2988,4.60014,2470.133,2020-10-31T13:19:55Z
2020-10-31T11:22:02Z,42.805,6.029,13.2998,4.60020,2470.156,2020-10-31T13:22:58Z
2020-10-31T11:25:06Z,42.805,6.029,13.3000,4.60009,2470.18,2020-10-31T13:26:01Z
2020-10-31T11:28:09Z,42.805,6.029,13.2998,4.60021,2470.18,2020-10-31T13:29:04Z
2020-10-31T11:31:12Z,42.805,6.029,13.2993,4.60029,2470.156,2020-10-31T13:32:07Z
2020-10-31T11:34:15Z,42.805,6.029,13.2989,4.60001,2470.156,2020-10-31T13:35:10Z
2020-10-31T11:37:18Z,42.805,6.029,13.2983,4.60019,2470.133,2020-10-31T13:38:13Z
2020-10-31T11:40:21Z,42.805,6.029,13.2977,4.59998,2470.171,2020-10-31T13:41:17Z
2020-10-31T11:43:24Z,42.805,6.029,13.2983,4.59993,2470.156,2020-10-31T13:44:20Z
2020-10-31T11:46:28Z,42.805,6.029,13.2983,4.59999,2470.194,2020-10-31T13:47:23Z
2020-10-31T11:49:31Z,42.805,6.029,13.2987,4.60006,2470.133,2020-10-31T13:50:26Z
2020-10-31T11:52:34Z,42.805,6.029,13.2998,4.60014,2470.133,2020-10-31T13:53:29Z
2020-10-31T11:55:37Z,42.805,6.029,13.2990,4.60011,2470.18,2020-10-31T13:56:32Z
2020-10-31T11:58:40Z,42.805,6.029,13.2983,4.59998,2470.147,2020-10-31T13:59:35Z
2020-10-31T12:01:43Z,42.805,6.029,13.2986,4.60021,2470.133,2020-10-31T14:02:38Z
2020-10-31T12:04:46Z,42.805,6.029,13.2991,4.60012,2470.11,2020-10-31T14:05:42Z
2020-10-31T12:07:49Z,42.805,6.029,13.2983,4.60007,2470.133,2020-10-31T14:08:45Z
2020-10-31T12:10:53Z,42.805,6.029,13.2983,4.59995,2470.147,2020-10-31T14:11:48Z
2020-10-31T12:13:56Z,42.805,6.029,13.2982,4.59990,2470.147,2020-10-31T14:14:51Z
2020-10-31T12:16:59Z,42.805,6.029,13.2979,4.59994,2470.11,2020-10-31T14:17:54Z
2020-10-31T12:20:02Z,42.805,6.029,13.2980,4.59992,2470.147,2020-10-31T14:20:57Z
2020-10-31T12:23:05Z,42.805,6.029,13.2991,4.59997,2470.171,2020-10-31T14:24:00Z
2020-10-31T12:26:08Z,42.805,6.029,13.2978,4.59999,2470.1,2020-10-31T14:27:03Z
2020-10-31T12:29:11Z,42.805,6.029,13.2979,4.59998,2470.096,2020-10-31T14:30:07Z
2020-10-31T12:32:14Z,42.805,6.029,13.2980,4.59997,2470.133,2020-10-31T14:33:10Z
2020-10-31T12:35:18Z,42.805,6.029,13.2983,4.60005,2470.133,2020-10-31T14:36:13Z
2020-10-31T12:38:21Z,42.805,6.029,13.2986,4.60020,2470.124,2020-10-31T14:39:16Z
2020-10-31T12:41:24Z,42.805,6.029,13.2986,4.60019,2470.124,2020-10-31T14:42:19Z
2020-10-31T12:44:27Z,42.805,6.029,13.2986,4.60002,2470.11,2020-10-31T14:45:22Z
2020-10-31T12:47:30Z,42.805,6.029,13.2982,4.59994,2470.124,2020-10-31T14:48:25Z
2020-10-31T12:50:33Z,42.805,6.029,13.2983,4.59996,2470.156,2020-10-31T14:51:29Z
2020-10-31T12:53:36Z,42.805,6.029,13.2986,4.60008,2470.147,2020-10-31T14:54:32Z
2020-10-31T12:56:39Z,42.805,6.029,13.2989,4.60024,2470.124,2020-10-31T14:57:35Z
2020-10-31T12:59:43Z,42.805,6.029,13.2985,4.59999,2470.133,2020-10-31T15:00:38Z
2020-10-31T13:02:46Z,42.805,6.029,13.2980,4.60016,2470.147,2020-10-31T15:03:41Z
2020-10-31T13:05:49Z,42.805,6.029,13.2982,4.60009,2470.124,2020-10-31T15:06:44Z
2020-10-31T13:08:52Z,42.805,6.029,13.2998,4.60016,2470.133,2020-10-31T15:09:47Z
2020-10-31T13:11:55Z,42.805,6.029,13.2983,4.59999,2470.11,2020-10-31T15:12:50Z
2020-10-31T13:14:58Z,42.805,6.029,13.2990,4.60015,2470.124,2020-10-31T15:15:54Z
2020-10-31T13:18:01Z,42.805,6.029,13.2998,4.60012,2470.133,2020-10-31T15:18:57Z
2020-10-31T13:21:04Z,42.805,6.029,13.2982,4.60010,2470.087,2020-10-31T15:22:00Z
2020-10-31T13:24:08Z,42.805,6.029,13.2981,4.60003,2470.087,2020-10-31T15:25:03Z
2020-10-31T13:27:11Z,42.805,6.029,13.2982,4.60011,2470.087,2020-10-31T15:28:06Z
2020-10-31T13:30:14Z,42.805,6.029,13.2990,4.60007,2470.124,2020-10-31T15:31:09Z
2020-10-31T13:33:17Z,42.805,6.029,13.2984,4.59996,2470.063,2020-10-31T15:34:12Z
2020-10-31T13:36:20Z,42.805,6.029,13.2982,4.59994,2470.063,2020-10-31T15:37:15Z
2020-10-31T13:39:23Z,42.805,6.029,13.2991,4.60014,2470.087,2020-10-31T15:40:19Z
2020-10-31T13:42:26Z,42.805,6.029,13.2985,4.60009,2470.063,2020-10-31T15:43:22Z
2020-10-31T13:45:30Z,42.805,6.029,13.2983,4.59995,2470.1,2020-10-31T15:46:25Z
2020-10-31T13:48:33Z,42.805,6.029,13.2986,4.59998,2470.087,2020-10-31T15:49:28Z
2020-10-31T13:51:36Z,42.805,6.029,13.2985,4.59996,2470.1,2020-10-31T15:52:31Z
2020-10-31T13:54:39Z,42.805,6.029,13.2983,4.60009,2470.077,2020-10-31T15:55:34Z
2020-10-31T13:57:42Z,42.805,6.029,13.2986,4.59999,2470.096,2020-10-31T15:58:37Z
2020-10-31T14:00:45Z,42.805,6.029,13.2982,4.60007,2470.11,2020-10-31T16:01:40Z
2020-10-31T14:03:48Z,42.805,6.029,13.2991,4.60014,2470.087,2020-10-31T16:04:44Z
2020-10-31T14:06:51Z,42.805,6.029,13.2981,4.60001,2470.124,2020-10-31T16:07:47Z
2020-10-31T14:09:55Z,42.805,6.029,13.2988,4.60013,2470.063,2020-10-31T16:10:50Z
2020-10-31T14:12:58Z,42.805,6.029,13.2998,4.60016,2470.11,2020-10-31T16:13:53Z
2020-10-31T14:16:01Z,42.805,6.029,13.2988,4.60019,2470.1,2020-10-31T16:16:56Z
2020-10-31T14:19:04Z,42.805,6.029,13.2991,4.59995,2470.124,2020-10-31T16:19:59Z
2020-10-31T14:22:07Z,42.805,6.029,13.2989,4.60011,2470.087,2020-10-31T16:23:02Z
2020-10-31T14:25:10Z,42.805,6.029,13.2993,4.60017,2470.11,2020-10-31T16:26:05Z
2020-10-31T14:28:13Z,42.805,6.029,13.2992,4.60020,2470.11,2020-10-31T16:29:09Z
2020-10-31T14:31:16Z,42.805,6.029,13.2988,4.60023,2470.11,2020-10-31T16:32:12Z
2020-10-31T14:34:20Z,42.805,6.029,13.2985,4.60002,2470.1,2020-10-31T16:35:15Z
2020-10-31T14:37:23Z,42.805,6.029,13.2992,4.60017,2470.133,2020-10-31T16:38:18Z
2020-10-31T14:40:26Z,42.805,6.029,13.2987,4.59998,2470.147,2020-10-31T16:41:21Z
2020-10-31T14:43:29Z,42.805,6.029,13.2980,4.60001,2470.11,2020-10-31T16:44:24Z
2020-10-31T14:46:32Z,42.805,6.029,13.2982,4.59999,2470.087,2020-10-31T16:47:27Z
2020-10-31T14:49:35Z,42.805,6.029,13.2986,4.60011,2470.087,2020-10-31T16:50:31Z
2020-10-31T14:52:38Z,42.805,6.029,13.2998,4.60022,2470.124,2020-10-31T16:53:34Z
2020-10-31T14:55:41Z,42.805,6.029,13.2982,4.59996,2470.133,2020-10-31T16:56:37Z
2020-10-31T14:58:45Z,42.805,6.029,13.2998,4.60016,2470.11,2020-10-31T16:59:40Z
2020-10-31T15:01:48Z,42.805,6.029,13.2997,4.60019,2470.147,2020-10-31T17:02:43Z